This is the latest recevied weather packets stored in our database for station/object KC3JUG-13. If no packets are shown the sender has not sent any weather packets the latest 1 day(s).
| Time | Temp. | Humidity | Pressure | Rain* | Wind** | Luminosity | Snow |
|---|---|---|---|---|---|---|---|
| 1777994738 | 23.33° C | 52% | 1012.3 hPa | 0 mm | 2.24 m/s, 242° | - | - |
| 1777993958 | 23.33° C | 53% | 1012.5 hPa | 0 mm | 2.24 m/s, 242° | - | - |
| 1777993178 | 22.78° C | 53% | 1012.5 hPa | 0 mm | 1.79 m/s, 214° | - | - |
| 1777992398 | 22.22° C | 55% | 1012.5 hPa | 0 mm | 2.24 m/s, 252° | - | - |
| 1777991618 | 22.22° C | 55% | 1012.4 hPa | 0 mm | 2.68 m/s, 273° | - | - |
| 1777990838 | 21.67° C | 56% | 1012.4 hPa | 0 mm | 1.79 m/s, 255° | - | - |
| 1777990058 | 21.11° C | 59% | 1012.6 hPa | 0 mm | 1.34 m/s, 240° | - | - |
| 1777989278 | 20.56° C | 59% | 1012.9 hPa | 0 mm | 1.34 m/s, 230° | - | - |
| 1777988498 | 20° C | 60% | 1012.9 hPa | 0 mm | 1.34 m/s, 217° | - | - |
| 1777987718 | 19.44° C | 62% | 1013 hPa | 0 mm | 1.34 m/s, 211° | - | - |
| 1777986938 | 18.89° C | 63% | 1013.3 hPa | 0 mm | 1.79 m/s, 243° | - | - |
| 1777986158 | 17.78° C | 66% | 1013.3 hPa | 0 mm | 1.79 m/s, 237° | - | - |
| 1777985378 | 17.22° C | 67% | 1013.4 hPa | 0 mm | 1.34 m/s, 263° | - | - |
| 1777984598 | 16.67° C | 68% | 1013.3 hPa | 0 mm | 1.34 m/s, 189° | - | - |
| 1777983818 | 16.67° C | 70% | 1013.4 hPa | 0 mm | 0.89 m/s, 264° | - | - |
| 1777983038 | 16.11° C | 75% | 1013.2 hPa | 0 mm | 0.45 m/s, 69° | - | - |
| 1777982259 | 15° C | 74% | 1013 hPa | 0 mm | 0.45 m/s, 302° | - | - |
| 1777981479 | 15° C | 76% | 1012.7 hPa | 0 mm | 0.45 m/s, 291° | - | - |
| 1777980699 | 13.89° C | 78% | 1012.7 hPa | 0 mm | 0.45 m/s, 267° | - | - |
| 1777979919 | 13.33° C | 81% | 1012.7 hPa | 0 mm | 0.45 m/s, 136° | - | - |
| 1777979139 | 13.33° C | 80% | 1012.7 hPa | 0 mm | 0.45 m/s, 84° | - | - |
| 1777978359 | 13.33° C | 79% | 1012.5 hPa | 0 mm | 0.45 m/s, 85° | - | - |
| 1777977579 | 13.33° C | 78% | 1012.3 hPa | 0 mm | 0.45 m/s, 59° | - | - |
| 1777976799 | 13.89° C | 77% | 1012.2 hPa | 0 mm | 0.89 m/s, 212° | - | - |
| 1777976019 | 13.89° C | 76% | 1012 hPa | 0 mm | 0.45 m/s, 98° | - | - |
* Rain latest hour (hover to see other rain measurements)
** Current wind speed in m/s (hover to see current wind gust speed)